SCP
0 0 0 0 0 0 0 0 0 0 0 0 0 0 0 0 0 0 0 0 0 0 0 0 0 0 0 0 0 0 0 0 0 0 0 0 0 0 0 0 0 0 0
0 0 0 0 0 0 0 0 0 0 0 0 0 0 0 0 0 0 0 0 0 0 0 0 0 0 0 0 0 0 0 0 0 0 0 0 0 0 0 0 0 0 0
0 0 0 0 0 0 0 0 0 0 0 0 0 0 0 0 0 0 0 0 0 0 0 0 0 0 0 0 0 0 0 0 0 0 0 0 0 0 0 0 0 0 0
0 0 0 0 0 0 0 0 0 0 0 0 0 0 0 0 0 0 0 0 0 0 0 0 0 0 0 0 0 0 0 0 0 0 0 0 0 0 0 0 0 0 0
0 0 0 0 0 0 0 0 0 0 0 0 0 0 0 0 0 0 0 0 0 0 0 0 0 0 0 0 0 0 0 0 0 0 0 0 0 0 0 0 0 0 0
0 0 0 0 0 0 0 0 0 0 0 0 0 0 0 0 0 0 0 0 0 0 0 0 0 0 0 0 0 0 0 0 0 0 0 0 0 0 0 0 0 0 0
0 0 0 0 0 0 0 0 0 0 0 0 0 0 0 0 0 0 0 0 0 0 0 0 0 0 0 0 0 0 0 0 0 0 0 0 0 0 0 0 0 0 0
0 0 0 0 0 0 0 0 0 0 0 0 0 0 0 0 0 0 0 0 0 0 0 0 0 0 0 0 0 0 0 0 0 0 0 0 0 0 0 0 0 0 0
0 0 0 0 0 0 0 0 0 0 0 0 0 0 0 0 0 0 0 0 0 0 0 0 0 0 0 0 0 0 0 0 0 0 0 0 0 0 0 0 0 0 0
0 0 0 0 0 0 0 0 0 0 0 0 0 0 0 0 0 0 0 0 0 0 0 0 0 0 0 0 0 0 0 0 0 0 0 0 0 0 0 0 0 0 0
0 0 0 0 0 0 0 0 0 0 0 0 0 0 0 0 0 0 0 0 0 0 0 0 0 0 0 0 0 0 0 0 0 0 0 0 0 0 0 0 0 0 0
0 0 0 0 0 0 0 0 0 0 0 0 0 0 0 0 0 0 0 0 0 0 0 0 0 0 0 0 0 0 0 0 0 0 0 0 0 0 0 0 0 0 0
0 0 0 0 0 0 0 0 0 0 0 0 0 0 0 0 0 0 0 0 0 0 0 0 0 0 0 0 0 0 0 0 0 0 0 0 0 0 0 0 0 0 0
0 0 0 0 0 0 0 0 0 0 0 0 0 0 0 0 0 0 0 0 0 0 0 0 0 0 0 0 0 0 0 0 0 0 0 0 0 0 0 0 0 0 0
0 0 0 0 0 0 0 0 0 0 0 0 0 0 0 0 0 0 0 0 0 0 0 0 0 0 0 0 0 0 0 0 0 0 0 0 0 0 0 0 0 0 0
0 0 0 0 0 0 0 0 0 0 0 0 0 0 0 0 0 0 0 0 0 0 0 0 0 0 0 0 0 0 0 0 0 0 0 0 0 0 0 0 0 0 0
0 0 0 0 0 0 0 0 0 0 0 0 0 0 0 0 0 0 0 0 0 0 0 0 0 0 0 0 0 0 0 0 0 0 0 0 0 0 0 0 0 0 0
0 0 0 0 0 0 0 0 0 0 0 0 0 0 0 0 0 0 0 0 0 0 0 0 0 0 0 0 0 0 0 0 0 0 0 0 0 0 0 0 0 0 0
0 0 0 0 0 0 0 0 0 0 0 0 0 0 0 0 0 0 0 0 0 0 0 0 0 0 0 0 0 0 0 0 0 0 0 0 0 0 0 0 0 0 0
0 0 0 0 0 0 0 0 0 0 0 0 0 0 0 0 0 0 0 0 0 0 0 0 0 0 0 0 0 0 0 0 0 0 0 0 0 0 0 0 0 0 0
0 0 0 0 0 0 0 0 0 0 0 0 0 0 0 0 0 0 0 0 0 0 0 0 0 0 0 0 0 0 0 0 0 0 0 0 0 0 0 0 0 0 0
0 0 0 0 0 0 0 0 0 0 0 0 0 0 0 0 0 0 0 0 0 0 0 0 0 0 0 0 0 0 0 0 0 0 0 0 0 0 0 0 0 0 0
0 0 0 0 0 0 0 0 0 0 0 0 0 0 0 0 0 0 0 0 0 0 0 0 0 0 0 0 0 0 0 0 0 0 0 0 0 0 0 0 0 0 0
0 0 0 0 0 0 0 0 0 0 0 0 0 0 0 0 0 0 0 0 0 0 0 0 0 0 0 0 0 0 0 0 0 0 0 0 0 0 0 0 0 0 0
0 0 0 0 0 0 0 0 0 0 0 0 0 0 0 0 0 0 0 0 0 0 0 0 0 0 0 0 0 0 0 0 0 0 0 0 0 0 0 0 0 0 0
0 0 0 0 0 0 0 0 0 0 0 0 0 0 0 0 0 0 0 0 0 0 0 0 0 0 0 0 0 0 0 0 0 0 0 0 0 0 0 0 0 0 0
Wind_Speed
6 6 6 6 6 6 6 6 5 5 6 7 7 7 7 7 7 6 6 6 6 5 5 5 5 4 4 3 3 3 4 5 8 5 3 3 5 6 5 6 7 8 8
6 6 6 6 6 6 6 6 6 6 7 7 6 7 7 7 7 7 7 7 7 6 6 6 6 5 5 4 4 4 4 4 5 6 4 3 5 6 6 7 6 6 7
5 5 6 6 6 6 6 6 6 6 6 6 6 6 7 7 7 7 7 7 7 6 6 6 6 6 6 5 5 5 4 4 4 5 5 3 3 3 4 5 6 5 5
4 4 5 5 5 5 5 5 5 5 5 5 6 6 6 6 6 7 7 7 7 6 6 6 6 6 6 6 6 6 5 5 4 5 4 3 4 4 4 5 5 4 4
3 4 4 4 4 4 5 5 5 5 6 5 5 5 5 5 6 8 7 7 7 7 7 6 6 7 9 8 6 6 6 5 5 5 5 4 4 4 5 4 5 3 3
2 2 3 3 4 4 4 5 5 5 5 5 5 5 6 6 11 13 10 6 7 7 7 7 7 7 9 12 13 12 10 8 6 6 6 6 6 5 4 4 4 3 4
1 2 2 3 3 4 5 5 5 5 5 5 5 5 5 7 13 13 14 7 6 6 7 7 7 8 10 7 10 12 11 13 12 8 8 8 7 6 5 6 6 6 5
1 1 2 3 3 3 4 4 5 4 4 4 5 5 5 8 13 14 14 7 6 6 7 7 7 7 8 10 8 7 7 8 10 8 8 8 8 7 7 7 7 6 3
0 1 2 2 3 3 3 4 4 4 4 4 4 5 5 7 12 13 13 5 5 6 7 7 8 7 13 16 10 8 9 9 12 15 15 14 15 15 11 6 5 5 5
1 1 1 2 2 3 3 3 3 3 4 5 5 5 5 5 11 13 13 5 6 6 6 7 11 13 16 18 10 8 10 10 10 11 11 12 10 11 13 8 6 6 5
1 1 1 2 2 3 3 3 3 4 4 5 5 5 5 6 10 13 14 6 6 7 7 7 7 17 19 19 17 9 13 14 10 9 8 8 7 6 6 6 6 6 6
1 1 2 2 2 2 3 3 3 4 4 5 5 5 4 5 8 11 15 14 13 8 8 7 9 19 21 21 16 16 20 17 7 7 7 7 6 6 6 6 7 8 7
1 1 2 2 2 2 2 3 3 3 3 4 4 5 5 4 6 13 15 17 18 10 8 15 19 21 20 14 16 19 15 7 6 6 7 7 6 7 6 5 6 6 5
1 2 2 2 3 3 2 2 3 3 4 4 5 6 6 6 5 5 6 8 12 11 9 13 18 18 15 15 13 10 6 6 7 6 7 7 6 6 6 5 5 4 4
2 2 2 2 2 3 3 3 3 3 4 6 5 5 6 7 9 16 13 9 9 10 12 7 6 6 6 6 6 6 5 5 6 5 6 7 7 6 6 4 4 4 5
1 1 1 2 2 2 3 4 6 7 11 12 12 11 9 12 18 18 19 20 20 20 13 6 6 6 7 7 7 7 5 5 6 6 6 7 7 6 6 5 4 5 5
2 1 1 2 2 3 3 4 6 7 10 11 12 14 13 16 17 18 19 19 18 17 7 6 6 7 7 7 7 7 7 6 6 6 6 7 6 6 5 5 5 4 4
2 2 2 2 2 3 3 4 4 6 7 6 8 13 15 16 17 18 18 15 9 8 5 6 6 7 7 7 7 7 7 7 6 6 6 6 6 6 6 5 5 5 4
2 1 1 2 2 3 3 4 4 5 6 7 6 8 12 14 16 16 15 7 7 7 7 6 6 7 7 7 7 6 7 7 7 6 6 6 6 6 6 5 5 6 5
2 3 2 2 3 3 3 4 4 5 6 6 6 6 7 8 7 8 7 7 7 7 7 7 7 7 7 7 6 6 6 7 7 7 6 6 6 5 6 6 5 4 4
2 2 4 3 3 3 3 4 4 5 5 6 6 8 14 8 7 8 8 7 7 7 7 7 7 7 7 6 6 7 8 7 7 6 6 6 5 5 5 5 5 4 3
2 2 2 2 3 3 4 4 4 5 6 7 6 8 14 7 6 7 7 7 7 7 7 7 7 7 7 7 7 7 7 7 7 6 6 6 5 5 5 4 4 3 3
2 2 2 2 3 5 5 4 4 5 6 6 7 7 7 6 6 7 7 7 7 7 7 7 8 8 7 7 6 6 7 8 7 7 7 6 5 5 4 4 4 4 3
3 3 3 3 3 3 4 4 4 5 6 6 6 7 7 7 7 8 8 7 8 8 8 8 8 10 13 10 7 7 7 8 8 7 8 6 6 5 5 4 4 4 3
3 3 3 3 3 3 4 4 5 5 6 6 6 7 7 7 8 8 7 8 9 9 10 9 8 9 11 12 11 9 12 16 14 9 6 5 6 6 5 4 4 3 2
3 3 3 3 3 3 3 4 4 5 5 6 6 7 7 7 8 8 8 8 8 9 9 8 10 11 12 11 12 14 16 16 15 14 7 4 4 4 4 3 3 2 2
Wind_Direction
22 26 29 28 29 30 31 26 21 20 19 19 17 16 15 13 8 7 5 1 357 351 346 336 322 315 303 291 277 269 263 258 260 258 233 220 208 212 218 215 216 215 221
24 26 27 27 29 29 26 22 20 21 20 17 14 16 16 12 9 7 5 3 358 352 347 347 341 333 320 308 295 278 269 268 269 271 255 233 225 219 219 220 220 217 217
25 26 25 23 25 23 20 17 17 18 16 13 14 14 11 9 9 4 4 359 354 350 348 344 339 339 334 327 317 307 294 285 273 276 272 252 239 225 229 233 227 225 222
25 25 27 20 18 15 14 13 14 14 12 9 8 6 5 4 6 2 359 352 347 345 346 343 340 339 333 329 319 313 309 301 292 283 274 266 248 233 222 225 232 221 223
26 21 18 12 11 10 10 9 8 8 7 4 5 1 359 359 1 360 353 345 341 338 337 336 333 330 326 324 319 318 312 300 296 288 280 268 253 233 227 219 234 232 234
25 13 9 7 7 5 1 1 2 2 1 2 360 356 355 354 353 352 348 338 335 333 330 327 324 323 324 325 321 317 313 301 294 287 283 275 266 256 243 239 230 227 241
8 359 4 1 0 358 356 358 357 355 354 353 350 350 346 342 347 346 345 338 328 321 318 318 321 325 328 320 320 321 316 309 295 282 280 278 273 262 249 242 237 234 238
349 351 355 352 349 348 352 350 347 346 342 339 335 334 332 334 340 340 341 338 322 318 316 314 313 316 318 321 317 314 307 307 301 289 273 272 276 272 251 246 244 250 263
310 330 339 340 337 339 339 332 329 328 324 319 317 320 321 322 332 335 339 322 315 313 312 315 315 309 316 320 317 311 307 304 305 299 291 286 287 285 276 259 242 237 253
258 293 318 326 325 322 317 314 312 310 307 310 311 309 308 308 325 333 336 320 316 314 310 310 316 316 316 318 313 306 303 300 300 301 296 290 284 280 275 254 232 232 239
236 276 294 302 301 303 307 307 307 308 310 311 310 309 311 318 328 331 332 326 317 314 312 310 309 315 314 312 309 298 295 299 294 291 289 283 275 268 257 251 236 226 233
241 278 288 296 301 312 309 308 309 314 315 314 314 315 313 319 325 325 327 327 325 314 308 305 305 310 310 309 306 300 302 303 295 293 291 288 283 276 262 254 248 238 232
253 275 287 299 300 302 306 311 315 317 314 313 315 314 315 316 320 326 325 325 323 316 304 307 309 309 310 308 304 306 306 300 293 290 288 285 278 277 272 267 265 256 257
244 269 284 299 305 308 306 303 305 307 309 311 313 312 311 311 311 313 313 314 315 311 302 301 305 305 303 302 304 305 299 290 294 286 285 284 284 280 275 270 265 256 266
248 271 292 299 300 300 300 291 294 277 290 302 297 298 306 307 308 315 317 314 311 304 308 299 294 297 297 299 299 297 294 296 296 289 287 289 287 280 276 266 256 257 262
244 270 285 294 295 297 301 304 299 299 304 305 303 302 301 303 311 315 317 316 316 314 314 305 303 303 304 306 307 305 301 298 296 294 293 291 289 285 284 275 255 250 253
224 253 281 294 299 302 304 306 309 311 307 307 308 310 310 312 315 317 318 317 317 320 314 304 304 306 306 306 305 304 301 299 298 296 294 291 287 285 281 276 265 256 253
220 251 271 277 288 292 292 295 298 306 312 310 310 312 315 318 320 320 320 321 317 318 306 305 305 305 306 305 304 303 303 303 300 297 295 292 290 287 282 275 266 259 256
216 226 250 275 284 284 288 292 294 298 300 304 308 313 319 322 321 320 324 317 308 308 308 305 303 303 303 302 301 300 298 298 297 294 292 290 288 285 281 275 269 269 267
218 247 269 279 282 285 290 294 297 299 302 303 307 311 315 317 315 317 318 310 306 304 304 304 303 301 301 299 297 296 297 296 297 293 292 291 290 284 280 276 272 265 255
209 241 270 283 277 283 288 290 293 297 299 301 302 306 314 315 311 309 309 308 307 306 304 303 301 299 296 295 295 294 294 293 292 291 291 291 292 290 286 282 279 270 256
206 227 247 262 275 282 288 288 291 294 298 300 303 308 314 314 305 304 304 306 307 304 300 299 297 294 292 293 294 293 292 291 291 291 290 290 291 290 288 286 283 275 258
204 232 256 268 276 288 295 292 291 293 296 299 303 307 309 307 305 304 306 308 309 307 304 298 295 294 293 291 289 286 285 286 287 289 289 289 289 290 288 285 280 276 256
207 224 245 265 273 276 283 290 293 296 299 300 302 304 304 304 304 305 306 305 305 303 303 301 296 294 295 295 291 286 280 282 284 282 279 278 282 286 283 281 280 269 244
208 221 238 251 263 272 280 286 289 293 298 300 302 304 305 305 303 303 303 303 303 301 302 302 298 297 298 298 296 291 290 293 292 287 275 270 272 276 276 273 274 268 241
210 222 234 245 254 263 272 280 285 291 295 297 299 299 300 300 300 301 302 303 305 304 303 302 300 299 300 299 295 294 297 298 296 293 284 271 269 272 273 271 264 251 220